Kezdőlap
METAR-TAF:

METAR-TAF

Repülőterek :

Menomonie Municipal Airport (Score Field)

Menomonie, Wisconsin, Amerikai Egyesült Államok

földrajzi szélesség: 44-53-32N, földrajzi hosszúság: 091-52-04W, magasság: 273 m

Jelenlegi meteorológiai megfigyelések

A jelentés 11 perccel ezelõtt készült, 01:55 UTC
Déli szél 11 kt széllökések: 17 kt
Hőmérséklet -8°C
Páratartalom 73%
Légköri nyomás 1013 hPa
Látótávolság: 16.1 km

METAR: KLUM 270155Z AUTO 18011G17KT 10SM M08/M12 A2990 RMK AO2 T10781125

Idő: 20:06 (02:06 UTC)


TAF: hiányzik

Meteorológiai megfigyelések és előrejelzések több, mint 4000 repülőtéren (METAR és TAF jelentéseket).

A térképen piros és sárga pontok jelzik az elérhető meteorológiai állomásokat.

Mozgassa az egeret a pont fölött, hogy megjelenjen az állomás neve.

Azután kattintson az időjárási megfigyelések és előrejelzések megtekintéséhez.

A térkép megváltoztatása: kattintson a fekete keresztel jelölt zöld gombra ráközelítéshez, a vonallal jelölt zöld gombra távolításhoz, vagy a zöld nyilakra a szomszédos térképek eléréséhez.


METAR-TAF: